Time,TemperatureF,DewpointF,PressureIn,WindDirection,WindDirectionDegrees,WindSpeedMPH,WindSpeedGustMPH,Humidity,HourlyPrecipIn,Conditions,Clouds,dailyrainin,SoftwareType,DateUTC
2013-01-14 00:06:00,32.1,30.0,30.06,WSW,242,4.0,-999.0,92,-99.99,,,0.00,weatherlink.com 1.10,2013-01-14 05:06:00,
2013-01-14 00:21:00,31.2,29.0,30.06,WSW,248,3.0,-999.0,92,-99.99,,,0.00,weatherlink.com 1.10,2013-01-14 05:21:00,
2013-01-14 00:36:00,31.0,29.0,30.07,WNW,290,1.0,-999.0,91,-99.99,,,0.00,weatherlink.com 1.10,2013-01-14 05:36:00,
2013-01-14 00:51:00,30.4,28.0,30.08,NW,314,7.0,-999.0,91,-99.99,,,0.00,weatherlink.com 1.10,2013-01-14 05:51:00,
2013-01-14 01:06:00,29.4,27.0,30.09,WSW,253,5.0,-999.0,91,-99.99,,,0.00,weatherlink.com 1.10,2013-01-14 06:06:00,
2013-01-14 01:21:00,28.7,26.0,30.10,West,264,10.0,-999.0,90,-99.99,,,0.00,weatherlink.com 1.10,2013-01-14 06:21:00,
2013-01-14 01:38:00,28.2,26.0,30.11,WNW,298,4.0,-999.0,90,-99.99,,,0.00,weatherlink.com 1.10,2013-01-14 06:38:00,
2013-01-14 01:51:00,27.5,25.0,30.12,WNW,295,4.0,-999.0,90,-99.99,,,0.00,weatherlink.com 1.10,2013-01-14 06:51:00,
2013-01-14 02:06:00,26.7,24.0,30.13,NW,304,8.0,-999.0,90,-99.99,,,0.00,weatherlink.com 1.10,2013-01-14 07:06:00,
2013-01-14 02:21:00,26.5,24.0,30.15,NW,311,3.0,-999.0,90,-99.99,,,0.00,weatherlink.com 1.10,2013-01-14 07:21:00,
2013-01-14 02:36:00,26.2,23.0,30.16,West,273,7.0,-999.0,89,-99.99,,,0.00,weatherlink.com 1.10,2013-01-14 07:36:00,
2013-01-14 02:51:00,25.8,23.0,30.17,West,278,3.0,-999.0,89,-99.99,,,0.00,weatherlink.com 1.10,2013-01-14 07:51:00,
2013-01-14 03:06:00,25.2,22.0,30.18,SW,236,4.0,-999.0,89,-99.99,,,0.00,weatherlink.com 1.10,2013-01-14 08:06:00,
2013-01-14 03:21:00,25.0,22.0,30.19,WNW,283,10.0,-999.0,89,-99.99,,,0.00,weatherlink.com 1.10,2013-01-14 08:21:00,
2013-01-14 03:36:00,24.2,22.0,30.19,West,269,10.0,-999.0,89,-99.99,,,0.00,weatherlink.com 1.10,2013-01-14 08:36:00,
2013-01-14 03:51:00,23.8,21.0,30.20,NNW,331,5.0,-999.0,89,-99.99,,,0.00,weatherlink.com 1.10,2013-01-14 08:51:00,
2013-01-14 04:06:00,23.9,21.0,30.20,NNW,342,5.0,-999.0,89,-99.99,,,0.00,weatherlink.com 1.10,2013-01-14 09:06:00,
2013-01-14 04:21:00,24.2,21.0,30.21,West,277,3.0,-999.0,88,-99.99,,,0.00,weatherlink.com 1.10,2013-01-14 09:21:00,
2013-01-14 04:36:00,24.4,22.0,30.21,WNW,296,6.0,-999.0,89,-99.99,,,0.00,weatherlink.com 1.10,2013-01-14 09:36:00,
2013-01-14 04:51:00,24.1,21.0,30.22,WNW,282,5.0,-999.0,88,-99.99,,,0.00,weatherlink.com 1.10,2013-01-14 09:51:00,
2013-01-14 05:06:00,23.5,21.0,30.23,WNW,297,10.0,-999.0,88,-99.99,,,0.00,weatherlink.com 1.10,2013-01-14 10:06:00,
2013-01-14 05:21:00,23.2,20.0,30.23,WNW,300,2.0,-999.0,88,-99.99,,,0.00,weatherlink.com 1.10,2013-01-14 10:21:00,
2013-01-14 05:36:00,23.1,20.0,30.23,WSW,254,5.0,-999.0,88,-99.99,,,0.00,weatherlink.com 1.10,2013-01-14 10:36:00,
2013-01-14 05:51:00,22.8,20.0,30.23,WNW,302,5.0,-999.0,88,-99.99,,,0.00,weatherlink.com 1.10,2013-01-14 10:51:00,
2013-01-14 06:06:00,22.7,20.0,30.24,WSW,257,1.0,-999.0,88,-99.99,,,0.00,weatherlink.com 1.10,2013-01-14 11:06:00,
2013-01-14 06:21:00,22.5,20.0,30.25,WNW,284,0.0,-999.0,88,-99.99,,,0.00,weatherlink.com 1.10,2013-01-14 11:21:00,
2013-01-14 06:36:00,22.4,19.0,30.26,WSW,255,7.0,-999.0,88,-99.99,,,0.00,weatherlink.com 1.10,2013-01-14 11:36:00,
2013-01-14 06:51:00,22.2,19.0,30.27,West,279,1.0,-999.0,88,-99.99,,,0.00,weatherlink.com 1.10,2013-01-14 11:51:00,
2013-01-14 07:06:00,22.0,19.0,30.28,NNW,336,4.0,-999.0,88,-99.99,,,0.00,weatherlink.com 1.10,2013-01-14 12:06:00,
2013-01-14 07:21:00,21.8,19.0,30.29,NNW,328,3.0,-999.0,88,-99.99,,,0.00,weatherlink.com 1.10,2013-01-14 12:21:00,
2013-01-14 07:51:00,21.6,19.0,30.30,NW,306,4.0,-999.0,88,-99.99,,,0.00,weatherlink.com 1.10,2013-01-14 12:51:00,
2013-01-14 08:06:00,21.4,18.0,30.32,WNW,296,4.0,-999.0,88,-99.99,,,0.00,weatherlink.com 1.10,2013-01-14 13:06:00,
2013-01-14 08:21:00,21.4,18.0,30.32,NNW,331,5.0,-999.0,88,-99.99,,,0.00,weatherlink.com 1.10,2013-01-14 13:21:00,
2013-01-14 08:36:00,20.7,17.0,30.33,WNW,292,4.0,-999.0,87,-99.99,,,0.00,weatherlink.com 1.10,2013-01-14 13:36:00,
2013-01-14 08:51:00,20.7,17.0,30.33,NNW,342,2.0,-999.0,87,-99.99,,,0.00,weatherlink.com 1.10,2013-01-14 13:51:00,
2013-01-14 09:06:00,20.4,17.0,30.35,WNW,303,0.0,-999.0,87,-99.99,,,0.00,weatherlink.com 1.10,2013-01-14 14:06:00,
2013-01-14 09:21:00,20.6,17.0,30.35,NNW,339,2.0,-999.0,87,-99.99,,,0.00,weatherlink.com 1.10,2013-01-14 14:21:00,
2013-01-14 09:36:00,20.6,17.0,30.36,WNW,302,3.0,-999.0,87,-99.99,,,0.00,weatherlink.com 1.10,2013-01-14 14:36:00,
2013-01-14 09:51:00,20.9,18.0,30.37,WNW,289,2.0,-999.0,87,-99.99,,,0.00,weatherlink.com 1.10,2013-01-14 14:51:00,
2013-01-14 10:06:00,21.1,18.0,30.37,WNW,298,0.0,-999.0,87,-99.99,,,0.00,weatherlink.com 1.10,2013-01-14 15:06:00,
2013-01-14 10:21:00,21.1,18.0,30.37,NNW,331,0.0,-999.0,87,-99.99,,,0.00,weatherlink.com 1.10,2013-01-14 15:21:00,
2013-01-14 10:36:00,21.3,18.0,30.36,NW,324,4.0,-999.0,87,-99.99,,,0.00,weatherlink.com 1.10,2013-01-14 15:36:00,
2013-01-14 10:51:00,21.5,18.0,30.35,NW,326,0.0,-999.0,87,-99.99,,,0.00,weatherlink.com 1.10,2013-01-14 15:51:00,
2013-01-14 11:06:00,21.7,18.0,30.35,West,268,0.0,-999.0,87,-99.99,,,0.00,weatherlink.com 1.10,2013-01-14 16:06:00,
2013-01-14 11:21:00,21.8,19.0,30.35,West,261,0.0,-999.0,87,-99.99,,,0.00,weatherlink.com 1.10,2013-01-14 16:21:00,
2013-01-14 11:49:00,22.5,19.0,30.33,West,261,0.0,-999.0,87,-99.99,,,0.00,weatherlink.com 1.10,2013-01-14 16:49:00,
2013-01-14 12:06:00,22.7,19.0,30.33,West,261,0.0,-999.0,87,-99.99,,,0.00,weatherlink.com 1.10,2013-01-14 17:06:00,
2013-01-14 12:21:00,22.8,20.0,30.33,West,261,0.0,-999.0,87,-99.99,,,0.00,weatherlink.com 1.10,2013-01-14 17:21:00,
2013-01-14 12:36:00,23.1,20.0,30.32,NW,315,3.0,-999.0,87,-99.99,,,0.00,weatherlink.com 1.10,2013-01-14 17:36:00,
2013-01-14 12:51:00,23.2,20.0,30.33,NW,315,0.0,-999.0,86,-99.99,,,0.00,weatherlink.com 1.10,2013-01-14 17:51:00,
2013-01-14 13:06:00,23.3,20.0,30.35,WSW,238,4.0,-999.0,86,-99.99,,,0.00,weatherlink.com 1.10,2013-01-14 18:06:00,
2013-01-14 13:21:00,23.2,20.0,30.35,SSW,213,0.0,-999.0,86,-99.99,,,0.00,weatherlink.com 1.10,2013-01-14 18:21:00,
2013-01-14 13:36:00,23.2,20.0,30.34,West,271,2.0,-999.0,86,-99.99,,,0.00,weatherlink.com 1.10,2013-01-14 18:36:00,
2013-01-14 13:51:00,23.5,20.0,30.34,West,276,0.0,-999.0,86,-99.99,,,0.00,weatherlink.com 1.10,2013-01-14 18:51:00,
2013-01-14 14:06:00,23.7,20.0,30.34,West,259,0.0,-999.0,86,-99.99,,,0.00,weatherlink.com 1.10,2013-01-14 19:06:00,
2013-01-14 14:21:00,23.9,20.0,30.35,WNW,283,0.0,-999.0,86,-99.99,,,0.00,weatherlink.com 1.10,2013-01-14 19:21:00,
2013-01-14 14:36:00,24.1,21.0,30.34,West,273,0.0,-999.0,86,-99.99,,,0.00,weatherlink.com 1.10,2013-01-14 19:36:00,
2013-01-14 14:51:00,24.3,20.0,30.34,NNW,328,2.0,-999.0,85,-99.99,,,0.00,weatherlink.com 1.10,2013-01-14 19:51:00,
2013-01-14 15:21:00,24.2,20.0,30.37,WSW,256,1.0,-999.0,85,-99.99,,,0.00,weatherlink.com 1.10,2013-01-14 20:21:00,
2013-01-14 15:36:00,24.4,21.0,30.38,WSW,258,1.0,-999.0,85,-99.99,,,0.00,weatherlink.com 1.10,2013-01-14 20:36:00,
2013-01-14 15:51:00,24.6,20.0,30.40,WNW,287,1.0,-999.0,84,-99.99,,,0.00,weatherlink.com 1.10,2013-01-14 20:51:00,
2013-01-14 16:06:00,24.7,21.0,30.40,WNW,287,0.0,-999.0,84,-99.99,,,0.00,weatherlink.com 1.10,2013-01-14 21:06:00,
2013-01-14 16:21:00,24.9,21.0,30.40,West,281,5.0,-999.0,84,-99.99,,,0.00,weatherlink.com 1.10,2013-01-14 21:21:00,
2013-01-14 16:36:00,24.9,21.0,30.41,West,272,0.0,-999.0,84,-99.99,,,0.00,weatherlink.com 1.10,2013-01-14 21:36:00,
2013-01-14 16:51:00,24.9,21.0,30.42,West,281,3.0,-999.0,84,-99.99,,,0.00,weatherlink.com 1.10,2013-01-14 21:51:00,
2013-01-14 17:06:00,24.8,21.0,30.40,NW,311,1.0,-999.0,84,-99.99,,,0.00,weatherlink.com 1.10,2013-01-14 22:06:00,
2013-01-14 17:21:00,24.7,21.0,30.39,NW,312,0.0,-999.0,84,-99.99,,,0.00,weatherlink.com 1.10,2013-01-14 22:21:00,
2013-01-14 17:36:00,24.7,21.0,30.39,NW,311,2.0,-999.0,84,-99.99,,,0.00,weatherlink.com 1.10,2013-01-14 22:36:00,
2013-01-14 17:51:00,24.6,20.0,30.38,NW,313,3.0,-999.0,84,-99.99,,,0.00,weatherlink.com 1.10,2013-01-14 22:51:00,
2013-01-14 18:06:00,24.6,20.0,30.38,WNW,303,2.0,-999.0,84,-99.99,,,0.00,weatherlink.com 1.10,2013-01-14 23:06:00,
2013-01-14 18:21:00,24.7,21.0,30.38,NW,321,3.0,-999.0,84,-99.99,,,0.00,weatherlink.com 1.10,2013-01-14 23:21:00,
2013-01-14 18:36:00,24.9,21.0,30.37,NNW,329,0.0,-999.0,84,-99.99,,,0.00,weatherlink.com 1.10,2013-01-14 23:36:00,
2013-01-14 18:51:00,24.8,21.0,30.37,NNW,334,5.0,-999.0,84,-99.99,,,0.00,weatherlink.com 1.10,2013-01-14 23:51:00,
2013-01-14 19:06:00,24.8,21.0,30.36,NNW,336,3.0,-999.0,84,-99.99,,,0.00,weatherlink.com 1.10,2013-01-15 00:06:00,
2013-01-14 19:21:00,24.8,21.0,30.36,NNW,338,2.0,-999.0,84,-99.99,,,0.00,weatherlink.com 1.10,2013-01-15 00:21:00,
2013-01-14 19:36:00,24.8,21.0,30.36,NW,315,2.0,-999.0,84,-99.99,,,0.00,weatherlink.com 1.10,2013-01-15 00:36:00,
2013-01-14 19:51:00,24.9,21.0,30.36,North,355,0.0,-999.0,84,-99.99,,,0.00,weatherlink.com 1.10,2013-01-15 00:51:00,
2013-01-14 20:06:00,24.9,21.0,30.36,NNW,347,0.0,-999.0,84,-99.99,,,0.00,weatherlink.com 1.10,2013-01-15 01:06:00,
2013-01-14 20:36:00,24.9,21.0,30.36,NNW,348,0.0,-999.0,84,-99.99,,,0.00,weatherlink.com 1.10,2013-01-15 01:36:00,
2013-01-14 20:51:00,24.9,21.0,30.36,NNW,348,0.0,-999.0,84,-99.99,,,0.00,weatherlink.com 1.10,2013-01-15 01:51:00,
2013-01-14 21:06:00,24.9,21.0,30.36,NNW,348,1.0,-999.0,84,-99.99,,,0.00,weatherlink.com 1.10,2013-01-15 02:06:00,
2013-01-14 21:21:00,25.0,21.0,30.36,NNW,348,0.0,-999.0,84,-99.99,,,0.00,weatherlink.com 1.10,2013-01-15 02:21:00,
2013-01-14 21:36:00,25.1,21.0,30.36,NNW,348,2.0,-999.0,84,-99.99,,,0.00,weatherlink.com 1.10,2013-01-15 02:36:00,
2013-01-14 21:51:00,25.1,21.0,30.35,NNW,348,0.0,-999.0,84,-99.99,,,0.00,weatherlink.com 1.10,2013-01-15 02:51:00,
2013-01-14 22:06:00,25.0,21.0,30.35,NNE,13,1.0,-999.0,84,-99.99,,,0.00,weatherlink.com 1.10,2013-01-15 03:06:00,
2013-01-14 22:21:00,24.9,21.0,30.35,NNE,13,0.0,-999.0,84,-99.99,,,0.00,weatherlink.com 1.10,2013-01-15 03:21:00,
2013-01-14 22:36:00,24.7,21.0,30.35,NNE,13,0.0,-999.0,84,-99.99,,,0.00,weatherlink.com 1.10,2013-01-15 03:36:00,
2013-01-14 22:51:00,24.3,20.0,30.36,NNE,13,0.0,-999.0,84,-99.99,,,0.00,weatherlink.com 1.10,2013-01-15 03:51:00,
2013-01-14 23:06:00,23.9,20.0,30.36,NNE,13,0.0,-999.0,84,-99.99,,,0.00,weatherlink.com 1.10,2013-01-15 04:06:00,
2013-01-14 23:21:00,23.6,20.0,30.35,NNE,13,0.0,-999.0,84,-99.99,,,0.00,weatherlink.com 1.10,2013-01-15 04:21:00,
2013-01-14 23:36:00,23.4,19.0,30.36,NNE,13,0.0,-999.0,84,-99.99,,,0.00,weatherlink.com 1.10,2013-01-15 04:36:00,
2013-01-14 23:51:00,23.3,20.0,30.35,NNE,13,0.0,-999.0,85,-99.99,,,0.00,weatherlink.com 1.10,2013-01-15 04:51:00,